Location: Bartlow
(52.0833°N, 0.3167°E)
Time: 04:51:36
(UTC+00:00)

COSMOS 2406 - Pass Details

Date: 26 September 2023
Orbit: 843 x 863 km, 71.0° (Epoch: 29 November)

Event Time Altitude Azimuth Distance (km) Brightness Sun altitude
Exits shadow 03:56:11 26° 278° (W) 1,660 4.2 -18.0°
Maximum altitude 03:58:20 33° 317° (NW) 1,420 4.2 -17.7°
Drops below altitude 10° 04:03:32 10° 21° (NNE) 2,514 6.2 -16.9°
Sets 04:06:16 0° 31° (NNE) 3,452 7.2 -16.6°
